Location: Argonnex
(45.9500°N, 6.1333°E)
Time: 10:11:38
(UTC+00:00)

CZ-6A DEB - Pass Details

Date: 01 March 2024
Orbit: 827 x 907 km, 98.8° (Epoch: 12 April)

Event Time Altitude Azimuth Distance (km) Brightness Sun altitude
Rises 05:38:20 0° 14° (NNE) 3,432 ? -6.9°
Reaches altitude 10° 05:40:44 10° 16° (NNE) 2,481 ? -6.5°
Maximum altitude 05:46:15 83° 104° (ESE) 849 ? -5.6°
Drops below altitude 10° 05:51:38 10° 193° (SSW) 2,429 ? -4.6°
Sets 05:53:57 0° 194° (SSW) 3,355 ? -4.2°
